Regional Weather Roundup
Issued by NWS

Home | Current Version | Previous Version | Graphics & Text | Print | Product List | Glossary On
Versions: 1 2 3 4 5 6 7 8 9 10 11 12 13 14 15 16 17 18 19 20 21 22 23 24 25 26 27 28 29 30 31 32 33 34 35 36 37 38 39 40 41 42 43 44 45 46 47 48 49 50
000
ASUS43 KLSX 300359
RWRMO

WEATHER SUMMARY FOR MISSOURI
NATIONAL WEATHER SERVICE SPRINGFIELD MO
1100 PM CDT FRI MAY 29 2015

NOTE: "FAIR" INDICATES FEW OR NO CLOUDS BELOW 12,000 FEET WITH NO
       SIGNIFICANT WEATHER AND/OR OBSTRUCTIONS TO VISIBILITY.
       CURRENT SKY AND/OR WEATHER CONDITIONS ARE NOT AVAILABLE FOR
       CHILLICOTHE AND FARMINGTON.

MOZ001>031-035>038-043-044-053-054-300500-
...NORTHERN AND WESTERN MISSOURI...

CITY           SKY/WX    TMP DP  RH WIND       PRES   REMARKS
KANSAS CTY INT CLOUDY    63  62  97 S7        29.99R
KANSAS C DTWN  CLOUDY    68  63  84 S5        29.99R
LEE`S SUMMIT   CLOUDY    65  63  93 CALM      30.01R
ST JOSEPH      CLOUDY    66  64  93 S6        29.97R
CHILLICOTHE      N/A     66  64  93 S5        29.99S
KIRKSVILLE     LGT RAIN  67  66  97 S5        30.00S

$$
MOZ066>068-077>081-088>096-101>105-300500-
...SOUTHWEST MISSOURI...

CITY           SKY/WX    TMP DP  RH WIND       PRES   REMARKS
SPRINGFIELD    LGT RAIN  67  66  97 E5        29.97S
JOPLIN         CLOUDY    63  63 100 CALM      29.98R

$$
MOZ032>034-039>042-045>050-055>058-069>072-300500-
...CENTRAL MISSOURI...

CITY           SKY/WX    TMP DP  RH WIND       PRES   REMARKS
COLUMBIA       LGT RAIN  66  64  93 E5        29.99S
JEFFERSON CITY RAIN      68  65  90 CALM      29.98S FOG
ROLLA          TSTM      66  65  96 NE9G18    29.98R VSB 3/4
SEDALIA        CLOUDY    67  63  87 E3        30.01R
WHITEMAN AFB   CLOUDY    66  64  94 SE2       29.99R
OSAGE BEACH    CLOUDY    66  64  94 NE8       29.98F

$$
MOZ051-052-059>065-300500-
...EAST CENTRAL MISSOURI...

CITY           SKY/WX    TMP DP  RH WIND       PRES   REMARKS
ST LOUIS INTL  LGT RAIN  73  65  75 S10       30.00R
SPIRIT OF STL  RAIN      70  68  93 W14G23    29.99R FOG
ST CHARLES     HVY RAIN  72  70  93 SW7       29.99R FOG

$$
MOZ072>076-082>087-097>100-106>115-300500-
...SOUTH CENTRAL AND SOUTHEAST MISSOURI...

CITY           SKY/WX    TMP DP  RH WIND       PRES   REMARKS
CAPE GIRARDEAU MOCLDY    76  69  79 S7        30.00F
FARMINGTON     CLOUDY    68  66  94 S6        30.04F
POPLAR BLUFF   MOCLDY    73  67  81 SE6       29.98F
WEST PLAINS    HVY RAIN  66  64  93 W5        30.02R VSB 3/4

$$



USA.gov is the U.S. government's official web portal to all federal, state and local government web resources and services.